Regional Weather Roundup
Issued by NWS

Home | Current Version | Previous Version | Graphics & Text | Print | Product List | Glossary On
Versions: 1 2 3 4 5 6 7 8 9 10 11 12 13 14 15 16 17 18 19 20 21 22 23 24 25 26 27 28 29 30 31 32 33 34 35 36 37 38 39 40 41 42 43 44 45 46 47 48 49 50
395
ASUS45 KBOI 041810
RWRID

IDAHO REGIONAL WEATHER ROUNDUP
NATIONAL WEATHER SERVICE BOISE ID
1100 AM MST SUN DEC 04 2016

NOTE: "FAIR" INDICATES FEW OR NO CLOUDS BELOW 12000 FEET
WITH NO SIGNIFICANT WEATHER AND/OR OBSTRUCTIONS TO VISIBILITY

IDZ012-014-041900-
SOUTHWEST IDAHO


CITY           SKY/WX    TMP DP  RH WIND       PRES   REMARKS
BOISE          CLOUDY    43  33  68 SE17      29.92F
CALDWELL       CLOUDY    43  28  55 E14       29.93F
MOUNTAIN HOME  CLOUDY    38  28  67 E14       29.95F WCI  30
$$

IDZ016-017-041900-
SOUTHCENTRAL IDAHO


CITY           SKY/WX    TMP DP  RH WIND       PRES   REMARKS
BURLEY         CLOUDY    42  20  41 S28G35    29.96F
JEROME         CLOUDY    41  26  55 S5        29.97F
TWIN FALLS     CLOUDY    43  25  49 S21G30    29.95F
$$

IDZ019>023-041900-
SOUTHEAST IDAHO


CITY           SKY/WX    TMP DP  RH WIND       PRES   REMARKS
IDAHO FALLS    FLURRIES  35  23  61 S22G33    29.93F WCI  23
POCATELLO      CLOUDY    37  20  50 S21G33    29.96F WCI  26
REXBURG        CLOUDY    33  24  69 SW14G22   29.91F WCI  23
$$

IDZ006-010-011-018-031-032-041900-
CENTRAL IDAHO MOUNTAINS


CITY           SKY/WX    TMP DP  RH WIND       PRES   REMARKS
MCCALL         LGT SNOW  31  28  89 S14       29.82F VSB 3/4 WCI  21
HAILEY         SNOW      30  28  93 SE15      29.96F VSB 1/2 WCI  19
STANLEY          N/A     32  30  92 SE7       29.84F WCI  26
SALMON         CLOUDY    27  25  93 CALM      29.83F
CHALLIS        CLOUDY    31  26  82 CALM      29.80F
$$

IDZ002-004-006-007-026-041900-
NORTHERN IDAHO


CITY           SKY/WX    TMP DP  RH WIND       PRES   REMARKS
LEWISTON       LGT RAIN  42  37  82 W10       29.85R
LOWELL           N/A     33  31  92 CALM      29.86F
COEUR D`ALENE  LGT RAIN  37  34  89 W15       29.74S WCI  28
MULLAN PASS    SNOW      25  22  88 VRB6      29.59F VSB 1/4 WCI  18
$$




USA.gov is the U.S. government's official web portal to all federal, state and local government web resources and services.